Retour au catalogue

STARLINK-4434

ActifCommunicationsSSO
NORAD 53501·PAYLOAD·🇺🇸 United States

Lancé Aug 12, 2022 depuis Vandenberg Space Force Base

Loading…

Prochains Passages (prochaines 24 heures)

TLE

FraisSource: CelesTrak SupGP

Époque: Sep 15, 2026, 01:24 UTC

1 53501C 22099AN  26258.05881944 -.00049934  00000+0 -13857-2 0  2582
2 53501  97.4950  25.2467 0000501 104.3312 203.4204 15.36989718    19

Suivez STARLINK-4434 en temps réel avec AllMySat

Download on the App Store